Location: Cucq
(50.4773°N, 1.6202°E)
Time: 08:08:56
(UTC+00:00)

Cosmos 1536 Rocket - Pass Details

Date: 07 August 2020
Orbit: 605 x 632 km, 82.5° (Epoch: 27 September)

Event Time Altitude Azimuth Distance (km) Brightness Sun altitude
Rises 01:41:18 0° 344° (NNW) 2,886 7.7 -19.5°
Reaches altitude 10° 01:43:37 10° 338° (NNW) 1,973 6.7 -19.4°
Maximum altitude 01:47:44 42° 267° (W) 869 4.0 -19.1°
Enters shadow 01:48:24 39° 242° (WSW) 916 4.0 -19.0°
